Simultaneous Nadir Overpasses (SNOs) Predictions

Prediction of SNOs between GOES-15 and METOP-B Satellite Orbit:

Table of predicted SNOs for the next 14.0 days since TLE Epoch: 10/31/2025
Index Date Time (GOES-15) GOES-15 Lat,Lon METOP-B Lat,Lon Distance(km) Time Diff (sec)
1 11/02/2025 05:02:39 0.69, 61.56 1.20, 59.30 257.46 80
2 11/03/2025 04:44:46 0.69, 61.57 0.06, 64.26 307.23 80
3 11/04/2025 17:03:55 -0.68, 61.72 -1.14, 59.64 237.05 80
4 11/05/2025 16:40:41 -0.69, 61.74 -0.06, 64.61 326.73 80
5 11/07/2025 04:59:44 0.69, 61.65 1.07, 60.00 188.77 80
6 11/08/2025 04:41:50 0.70, 61.68 -0.02, 64.97 375.21 80
7 11/09/2025 17:00:58 -0.69, 61.83 -1.05, 60.35 169.81 80
8 11/10/2025 16:37:45 -0.71, 61.86 0.05, 65.32 393.62 80
9 11/12/2025 04:56:47 0.70, 61.78 0.96, 60.71 122.98 80
10 11/13/2025 04:38:54 0.71, 61.80 -0.14, 65.68 441.15 80
11 11/14/2025 16:55:22 -0.70, 61.95 -0.92, 61.05 103.20 80
